SCP
0 0 0 0 0 0 0 1 1 2 2 2 2 3 3 3 3 4 3 3 3 4 3 3 2 2 1 1 0 0 1 0 0 1 1 0 0 0 0 0 0 0 0
0 0 0 0 0 0 0 1 1 1 1 1 2 2 2 2 3 2 3 4 3 3 3 2 2 1 1 1 1 1 0 0 0 1 0 0 0 0 0 0 0 0 0
0 0 0 0 0 0 0 1 1 1 1 2 2 2 2 1 2 2 3 3 3 2 2 1 1 1 1 1 1 1 0 0 0 1 0 0 0 0 0 0 0 0 0
0 0 0 0 1 0 0 1 1 1 1 1 2 1 2 2 2 2 3 3 2 2 1 1 1 1 1 1 1 0 0 0 0 0 0 0 0 0 0 0 -0 0 0
0 0 0 0 1 1 1 1 1 1 1 1 2 2 2 2 2 2 3 2 2 2 2 1 1 1 1 0 0 0 0 0 0 0 0 0 0 0 0 0 0 0 0
0 0 0 0 0 1 1 1 1 1 1 1 2 2 2 2 2 3 2 2 2 2 1 1 1 0 0 0 0 0 0 0 0 0 0 0 0 0 0 0 0 0 0
0 0 0 0 0 0 1 2 1 1 2 2 3 2 2 3 1 2 2 2 1 1 0 1 1 0 0 0 0 0 0 0 0 0 0 0 0 0 0 0 0 0 0
0 0 0 0 0 1 1 1 2 2 3 6 4 3 3 2 0 0 1 1 1 0 1 0 0 0 0 0 0 0 0 0 0 0 0 0 0 0 0 0 0 0 0
0 0 -0 0 0 0 1 1 2 2 5 5 3 3 3 0 0 0 0 1 0 1 0 0 0 0 0 0 0 0 0 0 0 0 0 0 0 0 0 0 0 0 0
0 0 0 0 0 1 0 1 2 4 5 4 3 2 1 0 0 0 0 0 0 0 0 0 0 0 0 0 0 0 0 0 0 0 0 0 0 0 0 0 0 0 0
0 0 0 0 0 1 1 2 3 5 5 4 2 1 0 0 0 0 0 0 0 0 0 0 0 0 0 0 0 0 0 0 0 0 0 0 0 0 0 0 0 0 0
0 0 0 0 1 1 1 2 3 4 3 2 2 1 0 0 0 0 0 0 0 0 0 0 0 0 0 0 0 0 0 0 0 0 0 0 0 0 0 0 0 0 0
0 0 0 1 1 2 2 2 3 2 2 1 1 0 0 0 0 0 0 0 0 0 0 -0 -0 0 -0 -0 -0 -0 0 0 0 0 0 0 0 0 0 0 0 0 0
0 0 1 1 1 1 1 2 2 2 1 1 0 0 0 0 0 0 0 0 0 0 -0 -0 -0 -0 -0 -0 -0 0 0 0 0 0 0 0 0 0 0 0 0 0 0
0 0 1 1 1 1 1 2 1 1 1 0 0 0 0 0 0 0 0 0 0 -0 -0 -0 0 -0 -0 0 0 0 0 0 0 0 0 0 0 0 0 0 0 0 0
0 0 0 0 0 1 0 0 0 0 0 0 0 0 0 0 0 0 0 -0 -0 -0 -0 -0 0 0 0 0 0 0 0 0 0 0 0 0 0 0 0 0 0 0 0
0 0 0 0 1 0 0 0 0 0 0 0 0 0 0 0 0 0 0 -0 -0 0 0 0 0 0 0 0 0 0 0 0 0 0 0 0 0 0 0 0 0 0 0
0 0 0 0 0 0 0 0 0 0 0 0 0 0 0 0 0 -0 -0 0 0 0 0 0 0 0 0 0 0 0 0 0 0 0 0 0 0 0 0 0 0 0 0
0 0 0 0 0 0 0 0 0 0 0 0 0 0 0 0 0 0 0 0 0 0 0 0 0 0 0 0 0 0 0 0 0 0 0 0 0 0 0 0 0 0 0
0 0 0 0 0 0 0 0 0 0 0 0 0 0 0 0 0 0 0 0 0 0 0 -0 0 0 0 0 0 0 0 0 0 0 0 0 0 0 0 0 0 0 -0
0 0 0 0 0 0 0 0 0 0 0 0 0 0 0 0 0 0 0 0 0 0 0 0 0 0 0 0 0 0 0 0 0 -0 0 0 0 0 0 0 0 0 0
0 0 0 0 0 0 0 0 0 0 0 0 0 0 0 0 0 0 0 0 0 0 0 0 0 0 0 0 0 -0 -0 -0 -0 -0 -0 0 -0 -0 -0 0 -0 0 0
0 0 0 0 0 0 0 0 0 0 0 0 0 0 0 0 0 0 0 0 0 0 0 0 0 0 0 0 0 -0 0 -0 -0 -0 -0 0 0 -0 0 -0 0 0 0
0 0 0 0 0 0 0 0 0 0 0 0 0 0 0 0 0 0 0 0 0 0 0 0 0 0 0 0 0 -0 -0 -0 0 0 -0 -0 0 0 0 0 0 0 0
0 0 0 0 0 0 0 0 0 0 0 0 0 0 0 0 0 0 0 0 0 0 0 0 0 -0 -0 -0 -0 -0 -0 -0 0 0 -0 -0 -0 -0 0 0 0 0 0
0 0 0 0 0 0 0 0 0 0 0 0 0 0 0 0 0 0 0 0 0 -0 -0 0 -0 -0 -0 -0 -0 -0 -0 -0 -0 0 0 0 0 0 0 0 0 0 0
Wind_Speed_500mb
45 49 52 62 63 57 56 59 59 64 70 64 58 55 54 52 56 55 44 39 39 36 33 34 34 33 34 36 29 30 30 26 29 14 22 22 21 20 20 26 22 19 25
46 48 49 51 59 63 60 59 55 54 57 52 47 46 48 50 55 50 46 39 38 36 36 36 36 35 38 31 31 31 25 26 26 21 18 15 15 13 17 18 22 17 24
48 48 50 51 54 65 65 61 59 52 53 51 45 48 51 52 50 46 43 41 37 36 40 41 41 37 35 33 30 28 27 25 22 18 15 16 16 20 12 14 28 25 27
49 50 50 52 52 61 65 63 55 52 51 52 49 49 49 49 46 46 44 38 35 37 39 41 39 38 34 34 29 30 27 24 22 19 19 15 20 23 15 14 26 27 23
52 53 54 50 51 54 57 61 54 52 54 51 49 48 49 50 48 45 41 40 37 39 40 39 32 32 35 33 29 31 29 26 23 25 26 18 22 28 27 24 24 28 24
54 58 56 52 53 53 58 55 54 55 54 53 53 52 51 47 51 53 44 42 40 39 40 33 31 37 35 36 36 35 31 29 27 29 27 23 26 29 30 31 30 27 21
56 57 54 52 53 53 57 55 54 56 57 58 55 54 54 50 58 55 50 43 41 33 29 29 28 25 36 38 42 41 37 32 29 26 27 24 27 33 28 31 32 27 17
58 57 56 51 55 53 58 56 56 56 63 65 62 58 60 61 51 54 50 37 32 30 28 26 27 32 33 35 40 40 38 33 32 26 24 23 22 21 35 32 29 30 21
60 55 54 47 54 53 62 63 61 65 68 66 67 65 61 54 59 59 48 35 29 26 22 21 21 22 28 34 35 34 32 33 32 30 23 21 20 21 28 33 30 26 19
59 55 48 48 51 56 67 66 68 71 75 74 66 55 56 68 65 55 43 29 28 24 22 26 27 25 24 26 29 30 31 27 26 25 24 28 29 28 23 21 23 22 18
57 53 48 46 44 67 63 69 77 81 78 68 61 65 69 62 61 52 42 31 27 24 22 21 24 25 24 24 28 28 26 26 27 23 25 26 24 30 29 27 29 20 20
65 54 47 46 54 60 75 81 84 86 78 77 79 75 58 57 53 48 40 33 31 26 28 25 28 28 23 20 34 26 28 24 24 26 32 33 31 29 32 31 32 21 22
51 49 39 43 64 76 86 82 78 75 89 86 77 69 52 51 50 43 39 35 39 32 28 31 31 30 26 28 27 27 25 25 22 27 31 32 32 28 31 31 34 31 23
47 41 53 72 76 80 80 81 77 90 83 67 61 56 51 44 46 46 44 43 43 35 36 36 36 37 29 30 32 29 17 15 17 22 23 28 30 31 30 25 26 23 20
42 75 78 74 78 76 75 73 91 82 74 62 57 52 50 45 42 42 40 37 33 36 39 43 40 32 36 32 26 21 17 14 18 24 26 27 27 28 24 26 24 24 21
43 71 78 87 88 88 95 87 67 67 60 53 51 43 36 37 44 46 43 39 37 38 41 42 39 30 33 28 24 23 17 18 18 20 19 22 27 23 23 26 26 25 17
64 72 84 91 88 96 87 81 77 66 56 46 45 44 43 42 48 43 40 38 37 39 36 43 42 37 32 25 22 20 18 16 20 20 21 22 22 27 27 26 23 21 24
69 76 74 76 69 63 60 60 64 57 56 51 42 38 40 47 44 41 42 41 43 35 32 41 41 36 32 26 21 18 20 19 17 21 22 26 24 25 25 26 24 20 17
73 67 65 64 64 63 60 59 56 53 50 55 53 48 45 43 39 39 38 39 39 30 36 37 35 32 28 25 19 18 17 18 17 19 20 25 23 23 20 22 23 20 22
65 66 66 62 63 60 64 56 53 57 60 50 48 51 48 48 46 42 34 33 35 32 45 34 30 26 21 18 17 17 17 16 17 19 22 23 26 23 19 22 18 19 17
67 64 65 61 60 54 53 51 61 61 58 43 48 48 47 44 41 37 36 35 37 44 43 33 23 22 20 18 13 17 17 14 14 17 19 24 22 25 20 20 19 23 26
63 60 56 51 52 50 51 52 56 57 52 49 48 47 49 48 45 43 43 45 44 38 34 27 25 22 20 16 19 14 15 14 19 14 19 20 19 17 15 19 17 16 16
53 48 47 46 51 54 55 55 53 58 54 57 57 55 50 49 50 47 54 51 41 39 37 34 32 26 21 21 25 19 12 11 11 11 7 12 14 13 12 15 14 12 7
45 48 47 51 53 51 57 60 57 54 66 61 56 49 51 48 48 47 51 45 41 39 36 31 28 24 20 22 24 18 18 14 10 12 16 16 20 19 19 18 18 18 17
40 44 47 53 56 62 65 66 62 63 67 59 53 51 52 51 48 54 45 45 41 37 32 27 22 20 18 19 21 18 15 11 9 6 7 6 8 9 11 8 7 5 3
47 51 59 60 61 68 71 69 63 67 65 54 50 49 50 49 49 51 47 44 39 34 29 27 30 29 28 27 23 19 15 14 13 13 15 18 18 19 16 14 10 8 8
Wind_Direction_500mb
295 286 277 266 260 261 260 256 257 250 244 241 236 239 227 219 216 223 217 213 219 215 225 226 222 217 218 222 223 236 235 238 248 221 243 264 273 266 241 221 218 209 207
291 287 277 268 260 255 255 252 253 242 234 226 219 217 210 210 215 217 208 203 205 217 215 208 210 219 213 215 223 229 234 234 233 237 238 249 250 246 226 226 210 201 197
286 281 275 268 262 254 251 250 247 237 226 222 211 210 204 203 207 204 202 204 208 220 213 218 211 207 211 220 220 232 227 223 229 228 228 227 222 223 208 224 199 186 180
283 275 272 262 261 253 247 246 243 233 221 220 211 204 199 200 200 200 196 200 210 211 212 215 209 210 212 218 221 222 217 213 215 211 216 217 222 214 205 201 186 189 188
280 275 270 263 262 259 250 242 238 227 218 213 206 200 197 196 196 193 195 200 199 200 207 212 211 211 217 218 217 220 215 210 213 210 210 209 218 210 207 193 194 191 190
276 273 269 265 259 256 250 241 231 221 212 203 201 195 192 194 197 192 188 191 189 203 210 211 215 226 225 224 220 226 219 208 211 214 210 217 219 210 202 196 195 182 174
272 271 266 264 259 254 245 234 222 212 201 194 192 187 190 188 198 198 191 184 188 191 194 202 206 222 223 225 226 227 225 218 209 212 212 212 219 209 195 193 194 176 190
268 265 266 264 256 250 235 223 212 202 195 186 183 182 178 194 190 179 178 177 183 191 198 206 214 222 230 217 229 223 220 218 212 210 213 215 215 203 194 192 187 183 196
265 263 267 261 251 230 220 211 203 191 183 180 174 175 176 179 171 171 173 177 190 192 201 209 218 221 224 214 213 216 203 206 203 207 211 197 166 176 183 184 184 181 175
261 268 265 258 243 226 210 204 190 179 170 169 166 171 173 166 167 173 170 180 186 192 188 208 195 192 207 202 204 198 197 196 193 200 190 173 164 166 170 179 173 174 182
263 268 267 252 222 219 210 190 176 167 164 163 159 159 163 168 169 177 176 186 191 179 181 176 183 183 185 189 189 185 187 187 184 173 172 171 164 173 172 169 170 190 194
262 266 261 219 215 200 184 175 165 168 160 158 156 157 163 169 173 178 186 179 169 173 171 166 169 161 162 170 179 177 176 180 188 189 183 178 175 191 191 187 181 171 184
255 258 228 211 187 186 165 169 165 158 157 154 157 158 158 166 174 180 182 177 159 166 164 163 160 158 161 158 155 170 171 170 184 186 185 202 188 194 200 196 193 193 204
240 228 185 174 165 169 165 160 154 155 154 152 152 158 158 161 170 174 172 167 163 169 166 158 155 150 149 151 149 149 152 164 184 187 185 194 192 193 192 193 194 195 199
245 174 163 165 160 151 150 149 155 156 156 155 159 163 164 167 171 171 166 165 164 167 163 157 153 151 155 153 154 155 161 157 163 179 188 187 186 186 185 190 187 196 199
149 148 152 151 151 151 148 146 149 152 151 158 161 162 165 175 174 166 170 174 174 170 169 164 161 161 163 162 160 162 158 161 166 163 167 176 176 179 181 187 196 195 202
153 147 151 149 147 145 148 153 152 153 158 157 158 165 171 170 162 165 169 165 164 166 171 174 173 168 166 163 163 164 165 172 179 174 174 170 174 186 190 196 196 207 225
154 148 138 139 140 143 143 143 145 137 137 141 147 149 154 154 162 164 164 162 163 169 171 175 171 172 171 169 166 171 174 180 180 187 191 187 186 190 191 204 204 201 210
143 139 134 140 143 144 142 140 139 140 142 143 138 140 150 154 156 160 163 165 168 174 169 169 167 166 168 174 174 175 180 185 185 183 190 190 195 195 201 209 217 216 218
138 139 135 138 140 140 143 139 144 149 148 141 149 152 153 157 157 158 165 168 169 171 157 148 152 158 164 165 173 176 183 198 199 199 194 196 201 204 212 208 204 226 223
141 141 139 138 141 140 142 145 151 150 148 143 149 154 158 158 155 165 175 161 148 164 155 143 145 150 162 170 174 185 165 173 170 182 201 208 209 204 204 222 227 235 211
137 136 138 142 145 142 148 147 153 153 150 150 149 154 161 160 157 154 152 153 141 142 148 147 145 147 128 132 151 152 168 191 178 185 200 188 197 209 221 217 211 208 218
141 140 139 140 150 153 151 152 155 156 152 146 145 149 153 155 154 153 156 149 148 158 153 142 144 148 152 143 142 130 119 129 148 159 150 169 177 193 213 224 214 209 214
138 143 146 149 151 153 154 152 145 149 150 149 151 155 155 157 156 162 160 164 156 154 149 152 159 158 159 164 175 171 175 164 167 199 196 192 205 213 215 225 231 231 246
142 145 150 157 161 161 157 152 152 155 152 152 150 153 156 159 161 159 160 160 159 158 158 158 157 158 158 161 158 158 162 159 157 153 155 155 165 178 205 213 198 194 172
147 152 153 157 157 156 158 160 159 155 155 151 154 154 156 157 157 160 160 160 160 157 154 149 143 139 138 136 132 123 118 113 113 115 114 105 109 107 104 103 103 93 79
Wind_Speed_850mb
45 49 52 62 63 57 56 59 59 64 70 64 58 55 54 52 56 55 44 39 39 36 33 34 34 33 34 36 29 30 30 26 29 14 22 22 21 20 20 26 22 19 25
46 48 49 51 59 63 60 59 55 54 57 52 47 46 48 50 55 50 46 39 38 36 36 36 36 35 38 31 31 31 25 26 26 21 18 15 15 13 17 18 22 17 24
48 48 50 51 54 65 65 61 59 52 53 51 45 48 51 52 50 46 43 41 37 36 40 41 41 37 35 33 30 28 27 25 22 18 15 16 16 20 12 14 28 25 27
49 50 50 52 52 61 65 63 55 52 51 52 49 49 49 49 46 46 44 38 35 37 39 41 39 38 34 34 29 30 27 24 22 19 19 15 20 23 15 14 26 27 23
52 53 54 50 51 54 57 61 54 52 54 51 49 48 49 50 48 45 41 40 37 39 40 39 32 32 35 33 29 31 29 26 23 25 26 18 22 28 27 24 24 28 24
54 58 56 52 53 53 58 55 54 55 54 53 53 52 51 47 51 53 44 42 40 39 40 33 31 37 35 36 36 35 31 29 27 29 27 23 26 29 30 31 30 27 21
56 57 54 52 53 53 57 55 54 56 57 58 55 54 54 50 58 55 50 43 41 33 29 29 28 25 36 38 42 41 37 32 29 26 27 24 27 33 28 31 32 27 17
58 57 56 51 55 53 58 56 56 56 63 65 62 58 60 61 51 54 50 37 32 30 28 26 27 32 33 35 40 40 38 33 32 26 24 23 22 21 35 32 29 30 21
60 55 54 47 54 53 62 63 61 65 68 66 67 65 61 54 59 59 48 35 29 26 22 21 21 22 28 34 35 34 32 33 32 30 23 21 20 21 28 33 30 26 19
59 55 48 48 51 56 67 66 68 71 75 74 66 55 56 68 65 55 43 29 28 24 22 26 27 25 24 26 29 30 31 27 26 25 24 28 29 28 23 21 23 22 18
57 53 48 46 44 67 63 69 77 81 78 68 61 65 69 62 61 52 42 31 27 24 22 21 24 25 24 24 28 28 26 26 27 23 25 26 24 30 29 27 29 20 20
65 54 47 46 54 60 75 81 84 86 78 77 79 75 58 57 53 48 40 33 31 26 28 25 28 28 23 20 34 26 28 24 24 26 32 33 31 29 32 31 32 21 22
51 49 39 43 64 76 86 82 78 75 89 86 77 69 52 51 50 43 39 35 39 32 28 31 31 30 26 28 27 27 25 25 22 27 31 32 32 28 31 31 34 31 23
47 41 53 72 76 80 80 81 77 90 83 67 61 56 51 44 46 46 44 43 43 35 36 36 36 37 29 30 32 29 17 15 17 22 23 28 30 31 30 25 26 23 20
42 75 78 74 78 76 75 73 91 82 74 62 57 52 50 45 42 42 40 37 33 36 39 43 40 32 36 32 26 21 17 14 18 24 26 27 27 28 24 26 24 24 21
43 71 78 87 88 88 95 87 67 67 60 53 51 43 36 37 44 46 43 39 37 38 41 42 39 30 33 28 24 23 17 18 18 20 19 22 27 23 23 26 26 25 17
64 72 84 91 88 96 87 81 77 66 56 46 45 44 43 42 48 43 40 38 37 39 36 43 42 37 32 25 22 20 18 16 20 20 21 22 22 27 27 26 23 21 24
69 76 74 76 69 63 60 60 64 57 56 51 42 38 40 47 44 41 42 41 43 35 32 41 41 36 32 26 21 18 20 19 17 21 22 26 24 25 25 26 24 20 17
73 67 65 64 64 63 60 59 56 53 50 55 53 48 45 43 39 39 38 39 39 30 36 37 35 32 28 25 19 18 17 18 17 19 20 25 23 23 20 22 23 20 22
65 66 66 62 63 60 64 56 53 57 60 50 48 51 48 48 46 42 34 33 35 32 45 34 30 26 21 18 17 17 17 16 17 19 22 23 26 23 19 22 18 19 17
67 64 65 61 60 54 53 51 61 61 58 43 48 48 47 44 41 37 36 35 37 44 43 33 23 22 20 18 13 17 17 14 14 17 19 24 22 25 20 20 19 23 26
63 60 56 51 52 50 51 52 56 57 52 49 48 47 49 48 45 43 43 45 44 38 34 27 25 22 20 16 19 14 15 14 19 14 19 20 19 17 15 19 17 16 16
53 48 47 46 51 54 55 55 53 58 54 57 57 55 50 49 50 47 54 51 41 39 37 34 32 26 21 21 25 19 12 11 11 11 7 12 14 13 12 15 14 12 7
45 48 47 51 53 51 57 60 57 54 66 61 56 49 51 48 48 47 51 45 41 39 36 31 28 24 20 22 24 18 18 14 10 12 16 16 20 19 19 18 18 18 17
40 44 47 53 56 62 65 66 62 63 67 59 53 51 52 51 48 54 45 45 41 37 32 27 22 20 18 19 21 18 15 11 9 6 7 6 8 9 11 8 7 5 3
47 51 59 60 61 68 71 69 63 67 65 54 50 49 50 49 49 51 47 44 39 34 29 27 30 29 28 27 23 19 15 14 13 13 15 18 18 19 16 14 10 8 8
Wind_Direction_850mb
295 286 277 266 260 261 260 256 257 250 244 241 236 239 227 219 216 223 217 213 219 215 225 226 222 217 218 222 223 236 235 238 248 221 243 264 273 266 241 221 218 209 207
291 287 277 268 260 255 255 252 253 242 234 226 219 217 210 210 215 217 208 203 205 217 215 208 210 219 213 215 223 229 234 234 233 237 238 249 250 246 226 226 210 201 197
286 281 275 268 262 254 251 250 247 237 226 222 211 210 204 203 207 204 202 204 208 220 213 218 211 207 211 220 220 232 227 223 229 228 228 227 222 223 208 224 199 186 180
283 275 272 262 261 253 247 246 243 233 221 220 211 204 199 200 200 200 196 200 210 211 212 215 209 210 212 218 221 222 217 213 215 211 216 217 222 214 205 201 186 189 188
280 275 270 263 262 259 250 242 238 227 218 213 206 200 197 196 196 193 195 200 199 200 207 212 211 211 217 218 217 220 215 210 213 210 210 209 218 210 207 193 194 191 190
276 273 269 265 259 256 250 241 231 221 212 203 201 195 192 194 197 192 188 191 189 203 210 211 215 226 225 224 220 226 219 208 211 214 210 217 219 210 202 196 195 182 174
272 271 266 264 259 254 245 234 222 212 201 194 192 187 190 188 198 198 191 184 188 191 194 202 206 222 223 225 226 227 225 218 209 212 212 212 219 209 195 193 194 176 190
268 265 266 264 256 250 235 223 212 202 195 186 183 182 178 194 190 179 178 177 183 191 198 206 214 222 230 217 229 223 220 218 212 210 213 215 215 203 194 192 187 183 196
265 263 267 261 251 230 220 211 203 191 183 180 174 175 176 179 171 171 173 177 190 192 201 209 218 221 224 214 213 216 203 206 203 207 211 197 166 176 183 184 184 181 175
261 268 265 258 243 226 210 204 190 179 170 169 166 171 173 166 167 173 170 180 186 192 188 208 195 192 207 202 204 198 197 196 193 200 190 173 164 166 170 179 173 174 182
263 268 267 252 222 219 210 190 176 167 164 163 159 159 163 168 169 177 176 186 191 179 181 176 183 183 185 189 189 185 187 187 184 173 172 171 164 173 172 169 170 190 194
262 266 261 219 215 200 184 175 165 168 160 158 156 157 163 169 173 178 186 179 169 173 171 166 169 161 162 170 179 177 176 180 188 189 183 178 175 191 191 187 181 171 184
255 258 228 211 187 186 165 169 165 158 157 154 157 158 158 166 174 180 182 177 159 166 164 163 160 158 161 158 155 170 171 170 184 186 185 202 188 194 200 196 193 193 204
240 228 185 174 165 169 165 160 154 155 154 152 152 158 158 161 170 174 172 167 163 169 166 158 155 150 149 151 149 149 152 164 184 187 185 194 192 193 192 193 194 195 199
245 174 163 165 160 151 150 149 155 156 156 155 159 163 164 167 171 171 166 165 164 167 163 157 153 151 155 153 154 155 161 157 163 179 188 187 186 186 185 190 187 196 199
149 148 152 151 151 151 148 146 149 152 151 158 161 162 165 175 174 166 170 174 174 170 169 164 161 161 163 162 160 162 158 161 166 163 167 176 176 179 181 187 196 195 202
153 147 151 149 147 145 148 153 152 153 158 157 158 165 171 170 162 165 169 165 164 166 171 174 173 168 166 163 163 164 165 172 179 174 174 170 174 186 190 196 196 207 225
154 148 138 139 140 143 143 143 145 137 137 141 147 149 154 154 162 164 164 162 163 169 171 175 171 172 171 169 166 171 174 180 180 187 191 187 186 190 191 204 204 201 210
143 139 134 140 143 144 142 140 139 140 142 143 138 140 150 154 156 160 163 165 168 174 169 169 167 166 168 174 174 175 180 185 185 183 190 190 195 195 201 209 217 216 218
138 139 135 138 140 140 143 139 144 149 148 141 149 152 153 157 157 158 165 168 169 171 157 148 152 158 164 165 173 176 183 198 199 199 194 196 201 204 212 208 204 226 223
141 141 139 138 141 140 142 145 151 150 148 143 149 154 158 158 155 165 175 161 148 164 155 143 145 150 162 170 174 185 165 173 170 182 201 208 209 204 204 222 227 235 211
137 136 138 142 145 142 148 147 153 153 150 150 149 154 161 160 157 154 152 153 141 142 148 147 145 147 128 132 151 152 168 191 178 185 200 188 197 209 221 217 211 208 218
141 140 139 140 150 153 151 152 155 156 152 146 145 149 153 155 154 153 156 149 148 158 153 142 144 148 152 143 142 130 119 129 148 159 150 169 177 193 213 224 214 209 214
138 143 146 149 151 153 154 152 145 149 150 149 151 155 155 157 156 162 160 164 156 154 149 152 159 158 159 164 175 171 175 164 167 199 196 192 205 213 215 225 231 231 246
142 145 150 157 161 161 157 152 152 155 152 152 150 153 156 159 161 159 160 160 159 158 158 158 157 158 158 161 158 158 162 159 157 153 155 155 165 178 205 213 198 194 172
147 152 153 157 157 156 158 160 159 155 155 151 154 154 156 157 157 160 160 160 160 157 154 149 143 139 138 136 132 123 118 113 113 115 114 105 109 107 104 103 103 93 79